Flag for U.S.A. Weather past 2 weeks in Los Angeles, California, U.S.A.

Now
60 °F

Fog.


Feels Like: 60 °F
Forecast: 56 / 80 °F
Wind: No wind

Location: Los Angeles / USC Campus Downtown

Current Time: Mar 30, 2015 at 12:28:05 AM

Latest Report: Mar 29, 2015 at 11:47 PM


Visibility: 6 mi

Pressure: 30.02 "Hg

Humidity: 90%

Dew point: 57 °F

Location of Los AngelesLocation

Historic Weather in Los Angeles — Graph

°F

Los Angeles temperature yesterday

Maximum temperature yesterday: 76 °F (at 12:47 PM)
Minimum temperature yesterday: 56 °F (at 3:47 AM)
Average temperature yesterday: 66 °F

Past Weeks' High & Low Weather Summary

 TemperatureHumidityPressure
High92 °F (Mar 26, 1:47 PM)100% (Mar 29, 5:47 AM)30.18 "Hg (Mar 29, 5:47 AM)
Low56 °F (Mar 29, 3:47 AM)11% (Mar 26, 1:47 PM)29.86 "Hg (Mar 16, 6:47 PM)
Average69 °F59%30.02 "Hg
* Reported Mar 14 10:47 PM — Mar 29 10:50 PM, Los Angeles, Weather by CustomWeather, © 2015

Note: Actual official high and low records may vary slightly from our data, if they occured in-between our weather recording intervals... More about our weather records

Advertising

Los Angeles weather history for previous 24 hours

 ConditionsComfort  
Time TempWeatherWind HumidityBarometerVisibility
10:50 PM
Sun, Mar 29
61 °FFog.No wind90%30.02 "Hg6 mi
9:47 PM62 °FClear.3 mph86%30.01 "Hg7 mi
8:47 PM63 °FClear.No wind84%30.00 "Hg8 mi
7:47 PM64 °FSunny.5 mph81%29.98 "Hg8 mi
6:47 PM69 °FSunny.No wind59%29.96 "Hg10 mi
5:47 PM72 °FSunny.No wind57%29.96 "Hg10 mi
4:47 PM74 °FSunny.6 mph53%29.96 "Hg10 mi
3:47 PM75 °FSunny.3 mph52%29.96 "Hg10 mi
2:47 PM76 °FSunny.5 mph52%29.98 "Hg10 mi
1:47 PM76 °FSunny.No wind52%30.00 "Hg8 mi
12:47 PM76 °FSunny.5 mph52%30.02 "Hg5 mi
11:47 AM75 °FSunny.6 mph55%30.03 "Hg4 mi
10:47 AM74 °FSunny.No wind52%30.04 "Hg6 mi
9:47 AM68 °FSunny.No wind65%30.04 "Hg4 mi
8:47 AM63 °FHaze.5 mph81%30.03 "Hg3 mi
8:00 AM59 °FFog.5 mph93%30.05 "Hg2 mi
7:47 AM59 °FFog.3 mph93%30.05 "Hg2 mi
6:47 AM58 °FFog.3 mph97%30.05 "Hg1 mi
5:47 AM57 °FFog.No wind100%30.03 "Hg0 mi
4:47 AM57 °FFog.No wind96%30.03 "Hg0 mi
3:47 AM56 °FFog.No wind97%30.01 "Hg0 mi
2:47 AM59 °FFog.No wind93%30.02 "Hg5 mi
1:47 AM60 °FClear.No wind90%30.03 "Hg7 mi
12:47 AM61 °FClear.No wind90%30.03 "Hg7 mi
Weather by CustomWeather, © 2015

See weather overviewHow to use our weather pages